When you browse on this site, cookies collect data to enhance your experience and personalize the content and advertising you see.
Visit our Privacy Policy to learn more. By continuing to use the site, you agree to this use of cookies and data.
  • en France
  • Liste des pays
  • À 7 jours
  • Température de l'eau
  • Carte satellitaire
  • Carte météo
  • Widgets météo
  • user-avatar
    Se connecter

    Météo par heure à Malanje

    Ce jour, 24 Janvier, Jeudi

    Heure Température Précipitation Vent Pression Humidité
    00:00 +20°C° 0 mm 1 m/s 665 mmHg 98%
    01:00 +19°C° 0 mm 1 m/s 665 mmHg 98%
    02:00 +19°C° 0 mm 1 m/s 664 mmHg 98%
    03:00 +19°C° 0 mm 1 m/s 664 mmHg 98%
    04:00 +18°C° 0 mm 2 m/s 664 mmHg 99%
    05:00 +18°C° 0 mm 2 m/s 664 mmHg 99%
    06:00 +18°C° 0 mm 2 m/s 665 mmHg 98%
    07:00 +18°C° 0 mm 2 m/s 665 mmHg 98%
    08:00 +19°C° 0 mm 2 m/s 665 mmHg 96%
    09:00 +21°C° 0 mm 1 m/s 665 mmHg 93%
    10:00 +21°C° 0 mm 1 m/s 665 mmHg 91%
    11:00 +24°C° 0.1 mm 1 m/s 665 mmHg 82%
    12:00 +26°C° 0.1 mm 2 m/s 665 mmHg 72%
    13:00 +28°C° 0.1 mm 2 m/s 665 mmHg 63%
    14:00 +28°C° 1.2 mm 2 m/s 664 mmHg 70%
    15:00 +27°C° 1.2 mm 2 m/s 664 mmHg 77%
    16:00 +26°C° 1.2 mm 2 m/s 663 mmHg 84%
    17:00 +25°C° 1.2 mm 2 m/s 663 mmHg 87%
    18:00 +23°C° 1.2 mm 1 m/s 663 mmHg 90%
    19:00 +22°C° 1.2 mm 1 m/s 663 mmHg 93%
    20:00 +21°C° 0.3 mm 1 m/s 664 mmHg 93%
    21:00 +21°C° 0.3 mm 1 m/s 664 mmHg 94%
    22:00 +21°C° 0.3 mm 1 m/s 665 mmHg 94%
    23:00 +21°C° 0.6 mm 1 m/s 665 mmHg 95%

    Demain, 25 Janvier, Vendredi

    Heure Température Précipitation Vent Pression Humidité
    00:00 +20°C° 0.6 mm 1 m/s 665 mmHg 97%
    01:00 +19°C° 0.6 mm 2 m/s 665 mmHg 98%
    02:00 +19°C° 1.7 mm 2 m/s 664 mmHg 98%
    03:00 +19°C° 1.7 mm 2 m/s 664 mmHg 98%
    04:00 +19°C° 1.7 mm 2 m/s 664 mmHg 98%
    05:00 +20°C° 1.1 mm 2 m/s 665 mmHg 98%
    06:00 +21°C° 1.1 mm 1 m/s 665 mmHg 98%
    07:00 +21°C° 1.1 mm 1 m/s 665 mmHg 97%
    08:00 +22°C° 0.7 mm 1 m/s 666 mmHg 95%
    09:00 +23°C° 0.7 mm 2 m/s 666 mmHg 93%
    10:00 +24°C° 0.7 mm 2 m/s 666 mmHg 90%
    11:00 +25°C° 1.1 mm 2 m/s 666 mmHg 88%
    12:00 +25°C° 1.1 mm 2 m/s 665 mmHg 85%
    13:00 +26°C° 1.1 mm 1 m/s 665 mmHg 82%
    14:00 +26°C° 0.8 mm 2 m/s 664 mmHg 82%
    15:00 +26°C° 0.8 mm 2 m/s 664 mmHg 81%
    16:00 +27°C° 0.8 mm 2 m/s 664 mmHg 80%
    17:00 +25°C° 0.9 mm 2 m/s 664 mmHg 84%
    18:00 +24°C° 0.9 mm 2 m/s 664 mmHg 88%
    19:00 +21°C° 0.9 mm 2 m/s 664 mmHg 93%
    20:00 +22°C° 0.1 mm 1 m/s 664 mmHg 93%
    21:00 +21°C° 0.1 mm 1 m/s 665 mmHg 93%
    22:00 +21°C° 0.1 mm 1 m/s 666 mmHg 93%
    23:00 +21°C° 0.6 mm 1 m/s 666 mmHg 95%

    Après-demain, 26 Janvier, Samedi

    Heure Température Précipitation Vent Pression Humidité
    00:00 +21°C° 0.6 mm 1 m/s 665 mmHg 96%
    01:00 +20°C° 0.6 mm 1 m/s 665 mmHg 98%
    02:00 +20°C° 0.9 mm 1 m/s 665 mmHg 98%
    03:00 +18°C° 0.9 mm 0 m/s 665 mmHg 98%
    04:00 +18°C° 0.9 mm 0 m/s 665 mmHg 99%
    05:00 +18°C° 0.3 mm 0 m/s 665 mmHg 98%
    06:00 +19°C° 0.3 mm 0 m/s 666 mmHg 97%
    07:00 +19°C° 0.3 mm 0 m/s 666 mmHg 97%
    08:00 +19°C° 0.4 mm 0 m/s 667 mmHg 96%
    09:00 +20°C° 0.4 mm 0 m/s 667 mmHg 96%
    10:00 +20°C° 0.4 mm 0 m/s 668 mmHg 95%
    11:00 +20°C° 0.3 mm 0 m/s 667 mmHg 94%
    12:00 +21°C° 0.3 mm 0 m/s 667 mmHg 93%
    13:00 +23°C° 0.3 mm 1 m/s 666 mmHg 91%
    14:00 +24°C° 0 mm 1 m/s 666 mmHg 87%
    15:00 +24°C° 0 mm 1 m/s 665 mmHg 83%
    16:00 +25°C° 0 mm 2 m/s 665 mmHg 79%
    17:00 +23°C° 0 mm 2 m/s 665 mmHg 84%
    18:00 +22°C° 0 mm 1 m/s 665 mmHg 89%
    19:00 +21°C° 0 mm 1 m/s 665 mmHg 94%
    20:00 +21°C° 0 mm 1 m/s 665 mmHg 94%
    21:00 +21°C° 0 mm 1 m/s 666 mmHg 95%
    22:00 +20°C° 0 mm 1 m/s 666 mmHg 95%
    23:00 +20°C° 0 mm 1 m/s 666 mmHg 96%

    27 Janvier, Dimanche

    Heure Température Précipitation Vent Pression Humidité
    00:00 +19°C° 0 mm 1 m/s 665 mmHg 97%
    01:00 +19°C° 0 mm 1 m/s 665 mmHg 97%
    02:00 +19°C° 0 mm 1 m/s 665 mmHg 97%
    03:00 +19°C° 0 mm 1 m/s 664 mmHg 97%
    04:00 +18°C° 0 mm 1 m/s 664 mmHg 98%
    05:00 +19°C° 0 mm 1 m/s 665 mmHg 96%
    06:00 +19°C° 0 mm 1 m/s 665 mmHg 94%
    07:00 +18°C° 0 mm 0 m/s 665 mmHg 93%
    08:00 +22°C° 0 mm 1 m/s 666 mmHg 85%
    09:00 +24°C° 0 mm 1 m/s 667 mmHg 77%
    10:00 +26°C° 0 mm 1 m/s 667 mmHg 69%
    11:00 +28°C° 0 mm 1 m/s 667 mmHg 65%
    12:00 +29°C° 0 mm 1 m/s 666 mmHg 60%
    13:00 +30°C° 0 mm 2 m/s 665 mmHg 55%
    14:00 +30°C° 0.1 mm 2 m/s 665 mmHg 59%
    15:00 +29°C° 0.1 mm 2 m/s 664 mmHg 62%
    16:00 +29°C° 0.1 mm 2 m/s 664 mmHg 66%
    17:00 +27°C° 0.5 mm 2 m/s 664 mmHg 74%
    18:00 +25°C° 0.5 mm 2 m/s 664 mmHg 82%
    19:00 +21°C° 0.5 mm 2 m/s 664 mmHg 91%
    20:00 +22°C° 0.1 mm 1 m/s 664 mmHg 92%
    21:00 +21°C° 0.1 mm 1 m/s 665 mmHg 93%
    22:00 +21°C° 0.1 mm 1 m/s 665 mmHg 94%
    23:00 +20°C° 0.5 mm 1 m/s 665 mmHg 95%

    28 Janvier, Lundi

    Heure Température Précipitation Vent Pression Humidité
    00:00 +19°C° 0.5 mm 2 m/s 665 mmHg 97%
    01:00 +19°C° 0.5 mm 2 m/s 664 mmHg 98%
    02:00 +19°C° 0 mm 2 m/s 664 mmHg 98%
    03:00 +20°C° 0 mm 2 m/s 664 mmHg 98%
    04:00 +20°C° 0 mm 2 m/s 664 mmHg 98%
    05:00 +20°C° 0 mm 2 m/s 664 mmHg 97%
    06:00 +20°C° 0 mm 2 m/s 665 mmHg 97%
    07:00 +20°C° 0 mm 2 m/s 665 mmHg 97%
    08:00 +22°C° 0 mm 1 m/s 665 mmHg 92%
    09:00 +23°C° 0 mm 1 m/s 666 mmHg 87%
    10:00 +24°C° 0 mm 1 m/s 666 mmHg 83%
    11:00 +26°C° 0 mm 1 m/s 666 mmHg 76%
    12:00 +27°C° 0 mm 1 m/s 665 mmHg 69%
    13:00 +28°C° 0 mm 1 m/s 665 mmHg 63%
    14:00 +28°C° 0 mm 1 m/s 664 mmHg 64%
    15:00 +28°C° 0 mm 1 m/s 664 mmHg 65%
    16:00 +28°C° 0 mm 1 m/s 663 mmHg 66%
    17:00 +26°C° 0.8 mm 1 m/s 663 mmHg 73%
    18:00 +24°C° 0.8 mm 1 m/s 663 mmHg 81%
    19:00 +22°C° 0.8 mm 1 m/s 663 mmHg 89%
    20:00 +21°C° 0 mm 1 m/s 664 mmHg 90%
    21:00 +21°C° 0 mm 1 m/s 664 mmHg 91%
    22:00 +20°C° 0 mm 1 m/s 664 mmHg 92%
    23:00 +20°C° 0 mm 1 m/s 664 mmHg 93%

    29 Janvier, Mardi

    Heure Température Précipitation Vent Pression Humidité
    00:00 +20°C° 0 mm 1 m/s 664 mmHg 95%
    01:00 +19°C° 0 mm 1 m/s 663 mmHg 96%
    02:00 +20°C° 0 mm 1 m/s 663 mmHg 97%
    03:00 +19°C° 0 mm 2 m/s 663 mmHg 98%
    04:00 +19°C° 0 mm 2 m/s 664 mmHg 99%
    05:00 +19°C° 0 mm 2 m/s 664 mmHg 98%
    06:00 +20°C° 0 mm 2 m/s 665 mmHg 97%
    07:00 +20°C° 0 mm 2 m/s 665 mmHg 97%
    08:00 +21°C° 0 mm 2 m/s 666 mmHg 93%
    09:00 +23°C° 0 mm 2 m/s 666 mmHg 90%
    10:00 +24°C° 0 mm 2 m/s 666 mmHg 86%
    11:00 +25°C° 0.2 mm 2 m/s 666 mmHg 80%
    12:00 +27°C° 0.2 mm 2 m/s 665 mmHg 75%
    13:00 +28°C° 0.2 mm 2 m/s 665 mmHg 69%
    14:00 +28°C° 0.4 mm 2 m/s 665 mmHg 70%
    15:00 +28°C° 0.4 mm 2 m/s 664 mmHg 71%
    16:00 +28°C° 0.4 mm 2 m/s 664 mmHg 72%
    17:00 +26°C° 0.2 mm 2 m/s 664 mmHg 79%
    18:00 +24°C° 0.2 mm 1 m/s 664 mmHg 87%
    19:00 +22°C° 0.2 mm 1 m/s 664 mmHg 95%
    20:00 +22°C° 0 mm 1 m/s 664 mmHg 96%
    21:00 +21°C° 0 mm 1 m/s 665 mmHg 96%
    22:00 +21°C° 0 mm 1 m/s 665 mmHg 97%
    23:00 +21°C° 0 mm 1 m/s 664 mmHg 98%
    Voir plus